Flag for U.S.A. Weather past 2 weeks in Santa Clara, California, U.S.A.

Now
64 °F

Clear.


Feels Like: 64 °F
Forecast: 61 / 93 °F
Wind: No wind

Location: San Jose International Airport

Current Time: Jul 25, 2014 at 4:47:35 AM

Latest Report: Jul 25, 2014 at 3:53 AM


Visibility: 10 mi

Pressure: 29.83 "Hg

Humidity: 73%

Dew point: 55 °F

Location of Santa ClaraLocation

Historic Weather in Santa Clara — Graph

°F

Santa Clara temperature yesterday

Maximum temperature yesterday: 85 °F (at 3:53 PM)
Minimum temperature yesterday: 60 °F (at 4:53 AM)
Average temperature yesterday: 71 °F

Past Weeks' High & Low Weather Summary

 TemperatureHumidityPressure
High85 °F (Jul 14, 12:53 PM)93% (Jul 24, 5:53 AM)30.14 "Hg (Jul 24, 5:53 AM)
Low58 °F (Jul 10, 3:53 AM)39% (Jul 24, 3:53 PM)29.83 "Hg (Jul 24, 6:53 PM)
Average68 °F69%29.97 "Hg
* Reported Jul 10 3:53 AM — Jul 25 3:53 AM, Santa Clara, Weather by CustomWeather, © 2014

Note: Actual official high and low records may vary slightly from our data, if they occured in-between our weather recording intervals... More about our weather records

Advertising

Santa Clara weather history for previous 24 hours

 ConditionsComfort  
Time TempWeatherWind HumidityBarometerVisibility
3:53 AM
Jul 25
64 °FClear.No wind73%29.83 "Hg10 mi
2:53 AM65 °FClear.No wind70%29.83 "Hg10 mi
1:53 AM68 °FClear.No wind68%29.84 "Hg10 mi
12:53 AM68 °FClear.No wind63%29.85 "Hg10 mi
11:53 PM
Jul 24
69 °FClear.No wind59%29.86 "Hg10 mi
10:53 PM70 °FClear.3 mph55%29.86 "Hg10 mi
9:53 PM71 °FClear.6 mph51%29.86 "Hg10 mi
8:53 PM72 °FPassing clouds.8 mph49%29.85 "Hg10 mi
7:53 PM75 °FPassing clouds.14 mph48%29.83 "Hg10 mi
6:53 PM80 °FPassing clouds.15 mph39%29.83 "Hg10 mi
5:53 PM81 °FPassing clouds.16 mph42%29.83 "Hg10 mi
4:53 PM83 °FPassing clouds.16 mph40%29.84 "Hg10 mi
3:53 PM85 °FPassing clouds.14 mph39%29.85 "Hg10 mi
2:53 PM84 °FPassing clouds.12 mph40%29.88 "Hg10 mi
1:53 PM82 °FPassing clouds.9 mph43%29.90 "Hg10 mi
12:53 PM80 °FPassing clouds.8 mph42%29.93 "Hg10 mi
11:53 AM76 °FPassing clouds.6 mph50%29.96 "Hg10 mi
10:53 AM72 °FPassing clouds.5 mph61%29.98 "Hg10 mi
9:53 AM69 °FSunny.3 mph70%30.01 "Hg10 mi
8:53 AM66 °FPassing clouds.No wind78%30.01 "Hg10 mi
7:53 AM64 °FPassing clouds.3 mph81%30.02 "Hg10 mi
6:53 AM61 °FPassing clouds.No wind90%30.02 "Hg10 mi
5:53 AM60 °FPassing clouds.5 mph93%30.01 "Hg10 mi
4:53 AM60 °FClear.No wind90%30.01 "Hg10 mi
Weather by CustomWeather, © 2014

See weather overviewHow to use our weather pages